COSMOS 1275 DEB, 42128

Orbit data source: Space-Track

COSMOS 1275 DEB, 42128 is space debris in LEO originally from a launch on Thu, 04 Jun 1981 UTC launched from the Plesetsk Missile And Space Complex (PKMTR). Debris objects in space refer to the collection of defunct objects orbiting the Earth. Examples of debris include non-operational satellites, rocket bodies, and fragments generated from explosions, collisions, or faulty payload assembly.

Loading next visibility...
Identifier
42128, 1981-053QQ
Orbit
LEO
Country
Flag of CISCIS
Related business
Manufacturer
Unknown
Mission
Spacecraft
Bus & Motor
Unknown
Mass
Unknown
Launch date (UTC)
1981-06-04 (44 years ago)
Launch vehicle
Unknown
Launch site
Plesetsk Missile And Space Complex (PKMTR)
Object type
Payload
Rocket body
Debris
Shape & HBR
Unknown shape, 0.1 m
Radar Cross Section
Small (<0.1 m²)

Expand to show TLE details & history
Last TLE update: 20 hours ago

TLE from 20 hours ago
0 COSMOS 1275 DEB
1 42128U 81053QQ  25302.36221411  .00001058  00000-0  75013-3 0  9999
2 42128  82.9285 155.8103 0024299 232.9069 307.5018 13.96700443607614
Epoch: 2025-10-29T08:41Z
TLE epoch observation values (Epoch: 2025-10-29T08:41:35.299Z)
Latitude
-0.3038°
Longitude
167.51427°
Altitude
897.464 km
Speed
7.409 km/s
True Right ascension
22h 23m 23s
True Declination
0° 18' 07"
Sunlit
Object was in full shadow at epoch
Visualization orbit readout
Latitude
Unknown
Longitude
Unknown
Altitude
Unknown
Speed
Unknown
Apparent Right ascension
Unknown
Apparent Declination
Unknown
Sunlit
N/A
Visualization observer readout
Local Sidereal Time
23:50:44
Azimuth
Unknown
Elevation
Unknown
Doppler factor
Unknown
Orbital elements
Apogee altitude
920.054 km
Perigee altitude
884.672 km
Semi-major axis
7,280.5 km
Eccentricity
0.00243
Inclination
82.9285°
RAAN
155.8103°
Arg. of periapsis
232.9069°
True anomaly
307.28049°
Mean anomaly
307.5018°
Eccentric anomaly
307.39119°
Mean motion
3.49383 °/min
Orbital period
103.04 mins
BSTAR
0.00075013
Loading maneuver chart data...
Computing Atmospheric mass density...
Loading historical data...
Loading historical data...
Loading historical data...
Loading historical data...
Loading historical data...
Loading historical data...
Loading historical data...

Documentation

Showing up to 5 results
|